Flag for Switzerland Weather past 2 weeks in Lausanne, Vaud, Switzerland

Now
32 °F

Chilly.


Feels Like: 28 °F
Forecast: 30 / 51 °F
Wind: 3 mph from South

Location: Aigle

Current Time: Mar 6, 2015 at 5:48:44 AM

Latest Report: Mar 6, 2015 at 3:00 AM


Visibility: N/A

Pressure: 30.58 "Hg

Humidity: 67%

Dew point: 22 °F

Location of LausanneLocation

Historic Weather in Lausanne — Graph

°F

Lausanne temperature yesterday

Maximum temperature yesterday: 46 °F (at 3:00 PM)
Minimum temperature yesterday: 33 °F (at 8:00 AM)
Average temperature yesterday: 41 °F

Past Weeks' High & Low Weather Summary

 TemperatureHumidityPressure
High53 °F (Mar 2, 12:00 PM)99% (Feb 21, 9:00 PM)30.63 "Hg (Feb 21, 9:00 PM)
Low28 °F (Feb 19, 6:00 AM)35% (Feb 20, 11:00 AM)29.58 "Hg (Feb 21, 11:00 AM)
Average40 °F74%30.09 "Hg
* Reported Feb 19 3:00 AM — Mar 6 3:00 AM, Lausanne, Weather by CustomWeather, © 2015

Note: Actual official high and low records may vary slightly from our data, if they occured in-between our weather recording intervals... More about our weather records

Advertising

Lausanne weather history for previous 24 hours

 ConditionsComfort  
Time TempWeatherWind HumidityBarometerVisibility
3:00 AM
Fri, Mar 6
32 °FChilly.3 mph67%30.58 "HgN/A
2:00 AM37 °FChilly.3 mph49%30.56 "HgN/A
1:00 AM39 °FChilly.5 mph42%30.54 "HgN/A
12:00 AM37 °FChilly.5 mph52%30.54 "HgN/A
11:00 PM
Thu, Mar 5
41 °FQuite cool.8 mph37%30.53 "HgN/A
10:00 PM40 °FQuite cool.10 mph39%30.54 "HgN/A
9:00 PM40 °FChilly.12 mph44%30.53 "HgN/A
8:00 PM42 °FQuite cool.12 mph36%30.52 "HgN/A
7:00 PM42 °FClear.10 mph41%30.51 "Hg25 mi
6:00 PM44 °FQuite cool.13 mph36%30.49 "HgN/A
5:00 PM45 °FCool.13 mph36%30.47 "HgN/A
4:00 PM46 °FPassing clouds.14 mph39%30.47 "Hg25 mi
3:00 PM46 °FCool.13 mph42%30.47 "HgN/A
2:00 PM46 °FCool.12 mph35%30.48 "HgN/A
1:00 PM44 °FPassing clouds.12 mph39%30.50 "Hg25 mi
12:00 PM44 °FQuite cool.13 mph42%30.54 "HgN/A
11:00 AM44 °FQuite cool.13 mph48%30.52 "HgN/A
10:00 AM42 °FPassing clouds.8 mph46%30.54 "Hg25 mi
9:00 AM38 °FChilly.1 mph66%30.55 "HgN/A
8:00 AM33 °FChilly.3 mph83%30.54 "HgN/A
7:00 AM34 °FPassing clouds.3 mph73%30.52 "Hg25 mi
6:00 AM37 °FChilly.9 mph63%30.50 "HgN/A
5:00 AM38 °FChilly.9 mph63%30.49 "HgN/A
Weather by CustomWeather, © 2015

See weather overviewHow to use our weather pages